Weather History for Belen, NM

Change the Weather History Date:

Thursday, October 6, 2011

  Actual Average (KABQ) Record (KABQ)
Temperature  
Mean Temperature 64 °F 61 °F  
Max Temperature 75 °F 73 °F 87 °F (1956)
Min Temperature 52 °F 50 °F 29 °F (1915)
Degree Days  
Heating Degree Days 2 4  
Month to date heating degree days 21  
Since 1 July heating degree days 47  
Cooling Degree Days 0 1  
Month to date cooling degree days 6  
Year to date cooling degree days 1318  
Growing Degree Days 14 (Base 50)    
Moisture  
Dew Point 38 °F    
Average Humidity 44    
Maximum Humidity 69    
Minimum Humidity 19    
Precipitation  
Precipitation 0.00 in 0.04 in 1.15 in (1901)
Month to date precipitation 0.25  
Year to date precipitation 7.61  
Snow  
Snow 0.00 in - - ()
Month to date snowfall  
Since 1 July snowfall  
Since 1 September snowfall  
Snow Depth -    
Sea Level Pressure  
Sea Level Pressure 29.82 in    
Wind  
Wind Speed 15 mph (South)    
Max Wind Speed 34 mph    
Max Gust Speed 45 mph    
Visibility 10 miles    
Events      
T = Trace of Precipitation, MM = Missing Value Source: NWS Daily Summary

Daily Weather History Graph

Daily Weather History Graph

Search for Another Location

Airport:

Trip Planner

Search our weather history database for the weather conditions in past years. The results will help you decide how hot, cold, wet, or windy it might be!

Date:

Astronomy

Oct. 06, 2011 Rise Set
Actual Time 7:05 AM MDT 6:44 PM MDT
Civil Twilight 6:40 AM MDT 7:09 PM MDT
Nautical Twilight 6:11 AM MDT 7:39 PM MDT
Astronomical Twilight 5:41 AM MDT 8:08 PM MDT
Moon 3:49 PM MDT (10/6) 2:09 AM MDT (10/6)
Length of Visible Light 12h 29m
Length of Day
11h 39m
Waxing Gibbous, 76% of the Moon is Illuminated
Oct 6
Waxing Gibbous
Oct 11
Full
Oct 19
Last Quarter
Oct 26
New
Nov 2
First Quarter

Hourly Weather History & Observations

Time (MDT) Temp. Dew Point Humidity Pressure Visibility Wind Dir Wind Speed Gust Speed Precip Events Conditions
12:15 AM 59.4 °F 42.6 °F 54% 29.91 in 10.0 mi South 10.4 mph - N/A   Clear
12:35 AM 57.9 °F 43.3 °F 58% 29.91 in 10.0 mi SSW 9.2 mph - N/A   Clear
12:55 AM 57.9 °F 43.0 °F 58% 29.90 in 10.0 mi SSW 8.1 mph - N/A   Clear
1:15 AM 57.7 °F 42.6 °F 57% 29.90 in 10.0 mi South 8.1 mph - N/A   Clear
1:35 AM 57.6 °F 42.6 °F 57% 29.90 in 10.0 mi South 10.4 mph - N/A   Clear
1:55 AM 56.7 °F 43.2 °F 61% 29.89 in 10.0 mi South 8.1 mph - N/A   Clear
2:15 AM 56.5 °F 43.0 °F 61% 29.89 in 10.0 mi SSE 9.2 mph - N/A   Clear
2:35 AM 57.2 °F 42.4 °F 58% 29.88 in 10.0 mi SSE 9.2 mph - N/A   Clear
2:55 AM 57.0 °F 42.6 °F 59% 29.87 in 10.0 mi South 8.1 mph - N/A   Clear
3:15 AM 55.4 °F 43.3 °F 64% 29.87 in 10.0 mi South 9.2 mph - N/A   Clear
3:35 AM 54.3 °F 43.7 °F 67% 29.86 in 10.0 mi South 11.5 mph - N/A   Clear
3:55 AM 55.0 °F 43.0 °F 64% 29.85 in 10.0 mi South 10.4 mph - N/A   Clear
4:15 AM 55.4 °F 42.6 °F 62% 29.85 in 10.0 mi SSE 11.5 mph 17.3 mph N/A   Clear
4:35 AM 55.9 °F 42.1 °F 60% 29.84 in 10.0 mi SSE 11.5 mph - N/A   Clear
4:55 AM 55.2 °F 42.1 °F 61% 29.84 in 10.0 mi SE 10.4 mph - N/A   Clear
5:15 AM 54.1 °F 42.6 °F 65% 29.83 in 10.0 mi SSE 5.8 mph - N/A   Clear
5:35 AM 52.9 °F 43.0 °F 69% 29.82 in 10.0 mi SE 11.5 mph - N/A   Clear
5:55 AM 53.2 °F 42.6 °F 67% 29.82 in 10.0 mi SSE 9.2 mph - N/A   Clear
6:15 AM 53.8 °F 42.1 °F 65% 29.82 in 10.0 mi South 15.0 mph - N/A   Clear
6:35 AM 55.4 °F 41.0 °F 58% 29.81 in 10.0 mi South 16.1 mph - N/A   Clear
6:55 AM 55.2 °F 41.0 °F 59% 29.81 in 10.0 mi South 15.0 mph - N/A   Clear
7:15 AM 54.7 °F 41.2 °F 60% 29.81 in 10.0 mi South 15.0 mph - N/A   Clear
7:55 AM 56.3 °F 41.9 °F 59% 29.83 in 10.0 mi South 12.7 mph - N/A   Clear
8:15 AM 57.4 °F 42.4 °F 57% 29.82 in 10.0 mi South 13.8 mph - N/A   Clear
8:35 AM 59.2 °F 42.6 °F 54% 29.82 in 10.0 mi South 17.3 mph - N/A   Clear
8:55 AM 60.6 °F 42.3 °F 51% 29.83 in 10.0 mi South 16.1 mph 20.7 mph N/A   Clear
9:35 AM 62.8 °F 41.0 °F 45% 29.83 in 10.0 mi South 19.6 mph 24.2 mph N/A   Scattered Clouds
9:55 AM 64.0 °F 39.7 °F 41% 29.82 in 10.0 mi South 18.4 mph 23.0 mph N/A   Scattered Clouds
10:15 AM 65.1 °F 37.8 °F 36% 29.82 in 10.0 mi South 24.2 mph 34.5 mph N/A   Scattered Clouds
10:35 AM 66.0 °F 36.1 °F 33% 29.81 in 10.0 mi South 28.8 mph 33.4 mph N/A   Clear
10:55 AM 66.9 °F 34.7 °F 30% 29.81 in 10.0 mi South 24.2 mph 35.7 mph N/A   Clear
11:15 AM 68.2 °F 34.3 °F 29% 29.80 in 10.0 mi South 25.3 mph 31.1 mph N/A   Clear
11:35 AM 69.4 °F 33.1 °F 26% 29.79 in 10.0 mi South 25.3 mph 36.8 mph N/A   Clear
11:55 AM 70.7 °F 32.4 °F 24% 29.79 in 10.0 mi South 26.5 mph 34.5 mph N/A   Scattered Clouds
12:15 PM 71.1 °F 31.1 °F 23% 29.78 in 10.0 mi South 29.9 mph 38.0 mph N/A   Mostly Cloudy
12:35 PM 70.0 °F 28.6 °F 21% 29.78 in 10.0 mi South 26.5 mph 33.4 mph N/A   Overcast
12:55 PM 69.1 °F 28.0 °F 22% 29.78 in 10.0 mi SSE 24.2 mph 28.8 mph N/A   Overcast
1:15 PM 69.3 °F 28.4 °F 22% 29.78 in 10.0 mi SSW 20.7 mph 27.6 mph N/A   Overcast
1:35 PM 72.1 °F 28.9 °F 20% 29.76 in 10.0 mi South 23.0 mph 31.1 mph N/A   Scattered Clouds
1:55 PM 74.5 °F 29.1 °F 19% 29.76 in 10.0 mi SSW 24.2 mph 32.2 mph N/A   Clear
2:15 PM 74.8 °F 29.3 °F 19% 29.75 in 10.0 mi SSW 27.6 mph 36.8 mph N/A   Clear
2:35 PM 75.0 °F 30.4 °F 19% 29.74 in 10.0 mi SW 33.4 mph 42.6 mph N/A   Clear
2:55 PM 75.2 °F 31.5 °F 20% 29.74 in 10.0 mi SW 34.5 mph 44.9 mph N/A   Clear
3:15 PM 75.2 °F 31.6 °F 20% 29.74 in 10.0 mi SSW 28.8 mph 40.3 mph N/A   Clear
3:35 PM 74.8 °F 31.8 °F 21% 29.74 in 10.0 mi SSW 31.1 mph 36.8 mph N/A   Clear
4:15 PM 73.2 °F 32.4 °F 22% 29.75 in 10.0 mi SW 18.4 mph 34.5 mph N/A   Clear
4:35 PM 72.9 °F 33.3 °F 23% 29.76 in 10.0 mi SW 23.0 mph 28.8 mph N/A   Clear
4:55 PM 72.9 °F 33.4 °F 24% 29.76 in 10.0 mi WSW 20.7 mph - N/A   Clear
5:15 PM 73.2 °F 34.0 °F 24% 29.77 in 10.0 mi WSW 19.6 mph 24.2 mph N/A   Clear
5:35 PM 72.1 °F 33.6 °F 24% 29.79 in 10.0 mi WSW 16.1 mph 26.5 mph N/A   Clear
5:55 PM 66.9 °F 37.2 °F 34% 29.81 in 10.0 mi NNW 20.7 mph 25.3 mph N/A   Mostly Cloudy
6:15 PM 62.1 °F 40.3 °F 45% 29.81 in 10.0 mi NNW 21.9 mph 32.2 mph N/A   Overcast
6:35 PM 59.5 °F 40.3 °F 49% 29.83 in 10.0 mi North 18.4 mph 25.3 mph N/A   Overcast
6:55 PM 56.8 °F 40.3 °F 54% 29.86 in 10.0 mi NNE 17.3 mph 21.9 mph N/A   Overcast
7:15 PM 55.4 °F 39.6 °F 55% 29.87 in 10.0 mi NNE 19.6 mph 25.3 mph N/A   Overcast
7:35 PM 54.7 °F 39.4 °F 56% 29.87 in 10.0 mi North 17.3 mph - N/A   Overcast
8:35 PM 52.2 °F 38.5 °F 60% 29.93 in 10.0 mi NNE 16.1 mph 21.9 mph N/A   Scattered Clouds
8:55 PM 51.4 °F 38.3 °F 61% 29.93 in 10.0 mi North 13.8 mph 18.4 mph N/A   Mostly Cloudy
9:15 PM 51.1 °F 38.3 °F 62% 29.94 in 10.0 mi North 13.8 mph - N/A   Mostly Cloudy
9:35 PM 50.5 °F 38.3 °F 63% 29.95 in 10.0 mi NNE 11.5 mph - N/A   Scattered Clouds
9:55 PM 50.4 °F 38.5 °F 64% 29.95 in 10.0 mi NNE 9.2 mph - N/A   Mostly Cloudy
10:15 PM 50.2 °F 38.5 °F 64% 29.95 in 10.0 mi North 10.4 mph - N/A   Overcast
10:35 PM 50.4 °F 37.8 °F 62% 29.96 in 10.0 mi North 13.8 mph - N/A   Mostly Cloudy
10:55 PM 50.2 °F 36.5 °F 59% 29.95 in 10.0 mi North 11.5 mph - N/A   Clear
11:15 PM 49.6 °F 36.1 °F 60% 29.95 in 10.0 mi North 11.5 mph - N/A   Clear
11:35 PM 49.1 °F 36.0 °F 61% 29.95 in 10.0 mi North 11.5 mph - N/A   Scattered Clouds